EW6534 Weather Reports


time (UTC)temp
F
wind
direction
speed
knots
gust
knots
rain 1hr
in
rain 24hr
in
rain mn
in
humidity
%
barometer
mb
20260504214542 72 178 13.0 19.1 0.00 0.00 0.00 53 1005.9
20260504213044 73 182 13.9 20.0 0.00 0.00 0.00 51 1006.1
20260504211544 73 169 16.5 23.5 0.00 0.00 0.00 50 1006.2
20260504210035 73 196 13.9 20.9 0.00 0.00 0.00 53 1006.3
20260504204537 72 196 16.5 21.7 0.00 0.00 0.00 52 1006.3
20260504203030 72 172 14.8 20.9 0.00 0.00 0.00 54 1006.5
20260504201525 70 161 12.2 17.4 0.00 0.00 0.00 56 1006.8
20260504200023 68 193 13.0 17.4 0.00 0.00 0.00 60 1007.5
20260504194522 67 199 11.3 18.2 0.00 0.00 0.00 62 1008.0
20260504193021 67 190 13.0 21.7 0.00 0.00 0.00 61 1008.5
20260504191523 67 198 11.3 19.1 0.00 0.00 0.00 63 1008.3
20260504190020 69 190 16.5 21.7 0.00 0.00 0.00 56 1008.0
20260504184519 69 146 12.2 20.9 0.00 0.00 0.00 58 1007.3
20260504183015 69 138 12.2 16.5 0.00 0.00 0.00 58 1007.5
20260504181513 68 175 10.4 14.8 0.00 0.00 0.00 59 1007.6
20260504180011 68 144 10.4 18.2 0.00 0.00 0.00 58 1007.1
20260504174507 67 144 12.2 17.4 0.00 0.00 0.00 59 1007.5
20260504173005 67 149 9.6 15.6 0.00 0.00 0.00 60 1007.5
20260504171501 66 178 13.9 19.1 0.00 0.00 0.00 58 1007.8
20260504081526 50 159 10.4 15.6 0.00 0.00 0.00 67 1010.1
20260504050106 52 144 7.8 13.9 0.00 0.00 0.00 63 1012.1
20260504044600 52 138 8.7 13.0 0.00 0.00 0.00 63 1012.3
20260504043054 52 147 7.8 12.2 0.00 0.00 0.00 63 1012.3
20260504041549 52 144 7.8 12.2 0.00 0.00 0.00 63 1012.5
20260504040050 52 146 6.1 10.4 0.00 0.00 0.00 64 1012.7
20260504034544 52 136 6.1 8.7 0.00 0.00 0.00 63 1012.8
20260504033044 51 136 5.2 7.8 0.00 0.00 0.00 62 1012.9
20260504031547 52 134 6.1 9.6 0.00 0.00 0.00 61 1013.0
20260504030042 53 136 7.0 11.3 0.00 0.00 0.00 58 1013.2
20260504024600 53 137 6.1 9.6 0.00 0.00 0.00 60 1013.3
20260504023041 53 122 5.2 7.8 0.00 0.00 0.00 61 1013.3
20260504021542 52 113 3.5 6.1 0.00 0.00 0.00 65 1013.3
20260504020043 51 122 1.7 3.5 0.00 0.00 0.00 69 1013.3
20260504014539 51 119 1.7 6.1 0.00 0.00 0.00 68 1013.4
20260504013039 51 92 1.7 3.5 0.00 0.00 0.00 70 1013.4
20260504011538 51 71 0.9 3.5 0.00 0.00 0.00 71 1013.4
20260504010038 51 70 3.5 5.2 0.00 0.00 0.00 70 1013.2
20260504004544 51 76 2.6 3.5 0.00 0.00 0.00 71 1013.2
20260504003043 51 86 2.6 5.2 0.00 0.00 0.00 70 1013.0
20260504001541 51 86 3.5 7.8 0.00 0.00 0.00 70 1012.8
20260504000053 51 73 4.3 5.2 0.00 0.00 0.00 70 1012.9
20260503234532 52 67 1.7 3.5 0.00 0.00 0.00 69 1013.3
20260503233028 52 61 2.6 4.3 0.00 0.00 0.00 66 1013.5
20260503231529 52 349 1.7 3.5 0.00 0.00 0.00 63 1013.9
20260503230024 52 345 2.6 5.2 0.00 0.00 0.00 61 1014.0
20260503224524 53 319 2.6 7.0 0.00 0.00 0.00 62 1014.2
20260503223023 53 339 1.7 4.3 0.00 0.00 0.00 60 1014.4
20260503221520 52 75 0.9 5.2 0.00 0.00 0.00 65 1014.6
20260503220019 52 270 1.7 6.1 0.00 0.00 0.00 61 1014.5